EHI
4 5 8 8 7 6 8 7 6 5 6 5 4 4 4 3 2 2 6 12 14 12 12 12 10 7 6 6 6 6 6 6 5 4 4 3 3 3 3 3 1 0 0
6 7 9 9 8 6 8 9 8 6 7 7 7 6 5 4 5 6 8 11 12 12 12 12 11 9 7 7 6 6 6 6 6 5 4 3 3 3 3 3 2 1 0
9 10 11 10 9 8 8 10 10 9 9 10 9 8 7 7 8 9 9 10 10 10 11 13 13 12 9 8 7 7 7 7 6 6 6 5 4 4 4 4 3 2 1
13 12 13 12 10 8 8 9 11 11 11 10 9 7 7 8 8 8 7 8 9 9 9 12 14 14 11 8 7 7 7 6 7 7 7 7 7 6 6 6 5 4 3
14 13 13 13 11 9 8 8 9 11 11 10 8 5 5 6 6 5 5 7 9 10 10 12 14 13 11 9 8 6 5 6 8 8 8 8 8 6 6 6 6 5 3
15 13 12 14 13 12 10 9 9 10 12 12 9 5 3 4 4 4 4 6 10 12 13 15 15 12 11 11 10 7 6 7 8 8 8 8 6 6 6 6 5 3 2
18 15 13 15 16 14 13 11 11 12 13 13 10 6 3 2 3 5 5 5 7 9 11 15 17 15 14 15 14 13 12 10 8 8 7 6 5 4 4 4 3 3 2
22 19 17 17 18 17 15 14 13 13 13 13 11 8 4 2 3 5 5 4 4 6 8 11 16 19 18 17 17 16 14 11 10 9 7 5 4 3 2 2 2 2 2
24 22 19 19 19 19 17 16 14 13 12 12 11 8 5 3 4 4 3 2 3 6 6 7 11 16 18 17 16 15 12 9 9 9 10 7 4 2 1 1 1 1 1
23 21 19 19 19 19 18 15 12 11 11 10 10 8 6 5 5 3 2 1 3 5 5 5 8 12 16 17 16 14 10 7 6 8 10 8 6 3 2 2 1 1 1
22 19 19 21 21 19 16 13 11 10 9 9 9 8 6 5 3 2 1 2 3 4 6 7 8 11 15 18 18 14 9 5 4 5 7 7 5 4 3 2 2 2 2
26 23 22 26 25 20 15 13 12 10 9 9 9 9 7 3 1 1 2 2 2 2 5 9 10 10 13 17 16 12 7 4 2 2 4 4 3 2 2 2 2 2 2
30 29 27 29 27 21 16 13 12 11 10 10 9 8 6 3 1 2 3 2 1 1 4 7 9 10 11 12 11 8 4 2 1 1 2 2 1 0 0 0 1 1 1
31 31 31 30 26 20 15 15 14 12 11 10 8 6 4 2 2 3 3 3 2 1 3 5 8 10 10 7 5 4 3 2 1 1 1 1 0 0 0 0 0 0 0
29 32 32 30 25 18 16 18 18 14 11 11 11 10 7 4 4 6 6 6 5 4 3 4 7 10 9 5 3 3 4 3 1 0 0 0 0 0 0 0 0 0 0
31 32 32 28 23 19 19 21 21 19 17 16 16 17 14 10 9 10 11 10 9 7 5 5 8 11 10 7 5 4 5 4 2 1 0 0 0 0 0 0 0 0 0
34 32 30 27 22 19 19 20 19 20 21 19 18 18 17 14 14 14 13 12 11 10 7 6 9 12 13 11 9 6 5 4 3 2 1 0 0 0 0 0 0 0 0
32 29 28 26 21 17 18 19 17 18 20 20 17 15 14 14 15 14 14 13 12 12 9 7 8 11 13 13 11 8 4 2 2 1 0 0 0 0 0 0 0 0 0
28 27 26 23 17 14 15 17 15 14 15 17 16 14 13 14 14 14 15 15 14 13 11 9 8 11 14 13 11 7 4 1 1 0 0 0 0 0 0 0 0 0 0
26 25 21 17 13 10 10 12 12 11 11 13 15 16 15 14 14 13 14 14 14 14 13 10 8 10 13 13 10 7 3 2 2 1 1 1 0 0 0 0 0 0 0
24 23 19 14 11 9 8 8 9 10 10 11 14 16 15 12 10 10 10 11 12 12 12 9 7 8 11 11 9 5 3 3 4 3 2 2 1 1 1 0 0 0 0
23 22 20 17 14 11 8 6 7 9 11 13 15 14 11 8 7 7 7 7 7 8 8 7 6 7 9 10 7 4 3 4 4 3 3 3 3 2 1 0 0 0 0
22 22 20 19 16 12 8 4 4 8 12 14 14 13 10 8 7 8 8 7 6 5 5 6 7 8 10 9 6 5 5 5 4 3 3 3 3 3 1 0 0 0 0
21 21 20 20 17 13 7 2 2 6 10 12 13 12 11 9 8 9 9 8 8 7 5 4 6 8 9 8 7 6 6 5 4 3 3 3 3 2 1 0 0 0 0
18 20 20 19 17 13 7 2 2 6 10 11 11 10 10 9 8 7 8 9 10 10 8 5 4 4 5 5 4 4 4 4 3 3 3 3 3 2 1 0 0 0 0
16 19 20 19 18 14 7 2 2 7 11 11 9 9 8 8 6 5 7 9 10 11 10 6 3 1 1 2 1 2 3 3 2 3 3 3 2 1 1 0 0 0 0
Wind_Speed
1 1 1 1 1 1 1 1 1 1 1 1 1 2 2 2 3 3 4 8 8 7 6 6 6 6 5 5 5 5 4 4 4 5 5 5 6 7 7 7 6 6 5
2 1 1 1 1 1 1 1 1 2 1 1 2 2 2 2 2 4 4 5 7 7 6 7 6 6 5 5 5 5 5 5 5 5 5 5 5 6 7 7 6 6 6
2 1 1 1 1 1 1 1 1 1 2 2 2 2 2 2 2 3 3 3 4 6 7 7 6 6 6 5 5 5 5 6 5 5 5 5 4 4 5 6 6 6 6
1 1 1 1 1 1 1 1 1 1 2 2 2 2 2 2 2 2 2 2 2 4 6 8 7 6 5 5 5 4 5 5 5 5 5 5 4 5 5 5 6 6 6
2 1 1 1 1 1 1 1 2 1 2 2 1 1 1 2 1 1 1 1 2 3 3 6 8 6 5 5 5 4 5 5 5 5 5 5 5 5 5 5 6 5 6
2 1 2 1 1 1 2 2 2 1 1 1 1 1 1 1 1 1 1 1 2 3 3 4 4 5 7 6 5 4 5 5 5 5 5 5 5 5 5 5 6 6 5
2 2 1 1 1 1 1 1 1 1 1 1 1 1 0 0 1 1 1 1 2 2 3 4 3 2 4 6 5 5 4 5 5 4 4 4 4 4 5 5 5 5 5
2 2 2 1 1 1 1 1 1 0 0 1 0 0 0 0 1 1 2 2 2 2 2 3 3 3 3 3 4 6 4 4 5 4 4 3 4 4 4 4 5 5 5
2 2 2 1 1 1 1 1 0 0 1 0 0 0 0 0 0 0 1 1 2 1 1 1 3 3 3 3 3 4 5 5 5 5 4 4 3 3 3 3 4 4 5
3 3 3 2 1 1 1 1 1 1 1 1 1 0 0 1 0 0 0 1 2 2 1 1 2 2 3 2 3 5 5 4 4 4 4 4 3 3 2 3 3 3 4
3 3 3 2 2 1 1 1 1 1 1 1 1 0 0 1 1 1 1 0 0 0 1 1 1 1 2 2 3 4 5 5 5 4 4 4 3 3 3 2 2 3 3
3 3 3 2 2 1 1 1 1 1 0 1 1 1 0 0 0 0 1 1 0 1 1 1 1 1 1 2 3 6 6 6 5 4 4 3 3 3 3 3 3 3 3
3 3 3 2 2 1 1 1 1 1 1 1 1 1 1 1 0 0 1 1 1 1 1 1 1 1 1 2 3 5 5 5 5 5 4 3 3 3 3 3 3 3 2
3 3 3 2 2 2 2 1 1 1 1 1 2 1 2 1 1 1 1 1 1 1 0 1 1 1 1 2 3 6 4 5 5 5 5 4 3 3 3 3 3 2 2
3 4 4 3 3 3 2 2 2 1 1 2 1 1 1 2 2 1 1 1 1 1 1 1 0 1 1 2 3 3 3 6 6 6 5 5 4 3 3 3 3 3 2
3 4 3 3 3 3 2 2 1 2 2 1 1 1 1 1 1 1 1 1 1 1 1 1 1 1 1 1 2 2 2 5 6 7 6 6 5 5 4 4 4 4 3
3 3 3 3 3 3 3 2 3 2 2 2 2 1 1 1 2 1 1 1 1 0 1 1 1 0 1 1 2 2 3 4 4 7 7 7 6 6 6 5 5 4 4
3 3 3 3 3 3 3 3 3 2 2 2 2 2 2 1 2 2 1 1 1 1 1 1 1 1 2 2 2 3 3 3 3 6 8 7 7 7 7 6 6 5 5
3 3 2 3 2 2 2 3 3 2 2 2 2 2 2 2 2 1 2 2 1 1 1 2 2 1 2 2 2 2 2 2 3 4 6 6 7 8 8 7 7 7 6
3 3 2 2 2 2 1 2 2 2 2 2 1 1 2 1 2 2 2 2 1 2 2 2 2 2 2 2 1 1 2 2 2 2 2 4 6 8 8 8 8 7 7
3 2 2 2 2 2 1 0 1 2 1 2 2 1 1 1 1 1 2 2 2 1 2 2 2 2 1 1 1 1 2 2 2 1 1 2 2 3 5 7 8 8 8
3 2 2 2 1 0 1 1 1 2 1 2 2 2 2 2 2 3 3 2 2 2 2 2 2 2 2 2 1 2 2 2 2 1 1 2 2 3 3 4 7 8 9
2 2 2 2 2 1 2 1 1 2 2 2 2 2 2 1 1 2 3 4 3 4 4 3 3 3 2 2 2 2 2 2 3 2 2 3 2 3 2 3 7 8 9
2 2 2 2 2 1 2 1 1 2 3 3 3 3 2 2 2 2 3 2 2 2 3 3 3 3 3 2 2 3 3 3 3 3 2 3 2 2 2 2 6 8 8
2 2 2 2 2 2 2 2 2 3 3 3 3 3 3 2 1 3 3 3 2 2 3 3 3 3 4 4 3 2 2 2 3 3 2 2 2 2 2 2 3 7 8
2 2 2 2 2 2 2 3 3 2 3 3 2 2 2 2 2 2 3 3 3 3 3 3 4 5 5 5 5 4 3 3 3 2 2 2 2 1 2 2 2 2 4
Wind_Direction
69 77 66 78 112 122 140 148 131 141 129 135 124 110 109 110 115 124 129 142 142 144 152 158 163 165 163 164 163 166 170 171 171 178 183 192 197 199 200 201 199 194 190
82 69 65 53 52 58 73 115 118 109 107 84 82 81 83 95 115 125 131 144 149 152 159 166 171 169 167 165 166 173 179 176 174 180 187 190 199 203 201 198 197 195 194
98 87 94 86 58 70 106 92 84 107 112 100 89 76 66 60 77 103 128 144 157 162 164 167 168 163 161 160 165 174 181 181 176 178 184 183 188 194 197 195 195 196 198
114 90 85 82 37 36 63 88 65 68 64 61 72 75 79 75 75 70 87 124 146 152 166 172 169 163 159 164 170 168 169 175 175 174 184 185 189 195 194 192 190 194 201
116 99 79 80 57 48 44 52 79 70 78 67 71 80 91 99 96 87 71 95 122 129 142 157 165 162 160 166 168 170 174 175 174 180 187 187 188 190 189 190 192 194 200
135 121 110 93 70 64 55 48 59 53 71 89 96 94 90 132 150 159 176 150 133 136 140 145 161 165 164 162 163 170 173 177 175 176 183 188 188 187 189 191 193 193 196
132 127 106 115 99 93 87 86 93 90 113 135 125 105 46 182 182 166 173 166 146 146 141 143 147 146 152 165 167 167 169 178 176 173 174 176 176 180 185 188 192 196 197
147 142 127 133 115 111 99 74 74 83 187 131 137 172 143 12 315 194 169 164 156 150 153 156 150 146 150 149 147 156 163 168 170 175 177 171 165 168 180 191 198 201 201
154 125 127 114 111 121 126 161 112 281 298 321 41 39 105 163 227 309 192 148 138 126 168 151 136 140 147 145 149 156 166 171 175 175 168 160 161 167 179 195 197 201 202
145 143 139 136 134 120 122 173 150 223 247 274 290 267 202 155 188 193 269 113 150 154 168 145 142 131 134 137 141 139 154 167 172 175 174 174 175 176 190 204 205 208 209
150 146 142 144 156 151 148 190 134 213 238 271 290 275 242 248 214 196 211 47 348 176 166 178 145 143 155 153 141 138 155 174 178 178 180 183 193 197 198 205 209 212 212
153 147 150 155 174 170 187 184 220 209 276 305 305 309 314 258 194 239 205 217 250 253 193 157 149 171 165 149 150 149 159 177 178 175 177 184 196 198 201 205 212 211 209
155 158 159 167 179 183 189 182 220 223 220 264 278 299 308 279 243 216 182 208 244 256 203 174 178 172 181 138 139 146 159 165 170 171 178 185 190 198 204 208 212 216 213
160 155 156 172 172 178 197 187 213 222 217 261 265 269 281 283 272 231 207 200 257 280 257 230 194 164 158 138 141 164 166 163 170 179 185 187 190 195 206 209 208 213 219
165 150 165 171 171 184 194 201 214 212 210 234 251 258 276 286 273 270 243 208 209 246 271 241 212 165 153 140 161 175 159 171 184 189 191 194 199 199 205 208 206 206 215
154 155 171 173 176 188 194 205 225 222 215 218 228 240 262 285 287 267 252 251 237 217 251 275 302 203 187 190 170 175 176 175 192 194 195 199 202 202 207 209 211 211 214
161 168 173 178 184 189 189 212 233 216 216 221 238 232 243 267 285 281 274 274 270 201 226 255 254 235 168 215 194 211 208 194 195 200 196 198 200 204 208 210 212 212 212
166 174 179 185 198 198 196 212 236 225 227 225 225 227 240 248 268 296 309 305 290 256 209 250 257 247 245 220 217 234 233 219 196 200 198 201 202 205 207 209 213 215 215
171 181 188 189 203 206 203 217 235 229 234 230 221 216 243 255 261 275 277 280 278 278 247 242 250 237 241 224 232 240 235 232 233 198 197 200 207 211 212 215 216 217 216
172 176 181 192 202 208 207 230 253 242 242 245 238 223 229 243 261 267 266 284 282 290 275 262 255 249 246 233 224 239 255 248 243 228 209 200 206 213 216 220 219 219 216
175 170 176 197 211 208 198 191 272 252 248 263 259 241 232 228 241 254 263 293 290 280 283 276 272 272 274 260 248 247 261 269 272 229 216 225 207 212 212 219 220 217 214
165 167 179 180 187 227 87 91 296 284 268 261 264 258 238 223 230 223 233 260 275 266 279 276 276 271 279 281 277 270 274 275 278 240 240 258 232 231 221 203 200 207 211
154 148 157 158 149 146 132 129 319 299 282 270 268 266 268 261 271 250 226 231 251 267 258 261 274 279 284 288 280 275 275 273 268 258 251 260 241 238 230 200 194 203 210
159 162 175 174 169 168 138 159 274 263 268 256 247 239 237 240 271 289 269 243 238 259 261 253 252 262 271 280 267 258 261 270 267 253 227 253 252 254 256 215 203 207 207
165 177 186 189 182 172 188 192 224 260 257 255 250 244 225 219 243 271 274 266 259 261 265 264 254 253 259 266 268 268 263 261 278 273 238 249 256 268 254 236 217 209 212
184 184 181 188 184 178 202 197 202 249 261 261 248 231 201 202 201 239 255 269 266 274 287 287 273 262 248 240 231 221 236 253 269 276 243 240 260 275 274 237 214 204 216